Zurück zum Katalog

ION SCV-008

AktivWissenschaftSSO
NORAD 55051·PAYLOAD·🇮🇹 Italy

Gestartet Jan 3, 2023 von Cape Canaveral Space Force Station

Loading…

Nächste Überflüge (nächste 24 Stunden)

TLE

AktuellSource: Space-Track

Epoche: Sep 13, 2026, 20:18 UTC

1 55051U 23001AU  26256.84648471  .00005351  00000-0  18915-3 0  9996
2 55051  97.5720 354.7087 0015775  62.7898 297.4947 15.29513982204886

Verfolge ION SCV-008 in Echtzeit mit AllMySat

Download on the App Store